Weather History for Sedalia, MO

Change the Weather History Date:

Saturday, August 3, 2013

  Actual Average Record
Temperature  
Mean Temperature 79 °F 79 °F  
Max Temperature 87 °F 90 °F 103 °F (1964)
Min Temperature 71 °F 69 °F 53 °F (1950)
Degree Days  
Heating Degree Days 0 0  
Month to date heating degree days 0 0  
Since 1 June heating degree days 9 6  
Since 1 July heating degree days 0 0  
Cooling Degree Days 14 14  
Month to date cooling degree days 40 42  
Year to date cooling degree days 872 922  
Since 1 June cooling degree days 724 783  
Growing Degree Days 30 (Base 50)    
Moisture  
Dew Point 71 °F    
Average Humidity 77    
Maximum Humidity 93    
Minimum Humidity 61    
Precipitation  
Precipitation T in 0.08 in 0.58 in (1968)
Month to date precipitation 0.05 0.23  
Year to date precipitation 27.06 24.68  
Sea Level Pressure  
Sea Level Pressure 30.03 in    
Wind  
Wind Speed 5 mph (NE)    
Max Wind Speed 12 mph    
Max Gust Speed 16 mph    
Visibility 8 miles    
Events Rain    
T = Trace of Precipitation, MM = Missing Value Source: NWS Daily Summary

Daily Weather History Graph

Daily Weather History Graph

Search for Another Location

Airport:

Trip Planner

Search our weather history database for the weather conditions in past years. The results will help you decide how hot, cold, wet, or windy it might be!

Date:

Astronomy

Aug. 03, 2013 Rise Set
Actual Time 6:16 AM CDT 8:21 PM CDT
Civil Twilight 5:46 AM CDT 8:50 PM CDT
Nautical Twilight 5:10 AM CDT 9:26 PM CDT
Astronomical Twilight 4:31 AM CDT 10:04 PM CDT
Moon 3:26 AM CDT (8/3) 6:03 PM CDT (8/3)
Length of Visible Light 15h 03m
Length of Day
14h 04m
Waning Crescent, 9% of the Moon is Illuminated
Aug 3
Waning Crescent
Aug 6
New
Aug 14
First Quarter
Aug 20
Full
Aug 28
Last Quarter

Hourly Weather History & Observations

Time (CDT) Temp. Heat Index Dew Point Humidity Pressure Visibility Wind Dir Wind Speed Gust Speed Precip Events Conditions
12:53 AM 73.9 °F - 72.0 °F 93% 29.94 in 5.0 mi ENE 4.6 mph - N/A   Overcast
1:03 AM 73.4 °F - 71.6 °F 94% 29.97 in 6.0 mi Calm Calm - N/A   Overcast
1:53 AM 73.9 °F - 72.0 °F 93% 29.92 in 6.0 mi NNE 5.8 mph - 0.00 in Rain Light Rain
2:49 AM 73.4 °F - 71.6 °F 94% 29.95 in 5.0 mi NE 6.9 mph - 0.00 in   Mostly Cloudy
2:53 AM 73.0 °F - 72.0 °F 96% 29.92 in 5.0 mi NNE 6.9 mph - 0.00 in   Mostly Cloudy
3:04 AM 73.4 °F - 71.6 °F 94% 29.95 in 4.0 mi NNE 9.2 mph - N/A   Mostly Cloudy
3:14 AM 73.4 °F - 71.6 °F 94% 29.94 in 3.0 mi NNE 8.1 mph - N/A   Overcast
3:21 AM 73.4 °F - 71.6 °F 94% 29.94 in 2.5 mi NE 5.8 mph - N/A   Overcast
3:44 AM 73.4 °F - 71.6 °F 94% 29.93 in 1.5 mi ENE 5.8 mph - N/A   Overcast
3:53 AM 73.0 °F - 71.1 °F 93% 29.94 in 2.0 mi ENE 3.5 mph - N/A   Overcast
10:53 AM 78.1 °F - 70.0 °F 76% 30.06 in 10.0 mi East 8.1 mph - N/A   Overcast
11:53 AM 77.0 °F - 70.0 °F 79% 30.08 in 10.0 mi ENE 5.8 mph - N/A   Overcast
12:30 PM 77.0 °F - 69.8 °F 78% 30.10 in 10.0 mi NE 5.8 mph - N/A   Overcast
12:53 PM 78.1 °F - 70.0 °F 76% 30.08 in 10.0 mi North 4.6 mph - N/A   Overcast
1:42 PM 78.8 °F - 71.6 °F 78% 30.10 in 10.0 mi NE 5.8 mph - N/A   Overcast
1:53 PM 80.1 °F 83.6 °F 71.1 °F 74% 30.08 in 10.0 mi NNE 5.8 mph - N/A   Overcast
2:53 PM 82.0 °F 86.3 °F 71.1 °F 69% 30.07 in 10.0 mi Calm Calm - N/A   Overcast
3:22 PM 84.2 °F 89.6 °F 71.6 °F 66% 30.08 in 10.0 mi Variable 4.6 mph - N/A   Scattered Clouds
3:32 PM 82.4 °F 86.3 °F 69.8 °F 66% 30.08 in 10.0 mi Variable 3.5 mph - N/A   Mostly Cloudy
3:39 PM 84.2 °F 89.6 °F 71.6 °F 66% 30.08 in 10.0 mi Variable 3.5 mph - N/A   Scattered Clouds
3:53 PM 84.9 °F 90.1 °F 71.1 °F 63% 30.05 in 10.0 mi Variable 5.8 mph - N/A   Scattered Clouds
4:53 PM 86.0 °F 91.5 °F 71.1 °F 61% 30.05 in 10.0 mi Variable 5.8 mph - N/A   Partly Cloudy
5:53 PM 84.9 °F 90.1 °F 71.1 °F 63% 30.06 in 10.0 mi NE 6.9 mph - N/A   Mostly Cloudy
6:53 PM 82.9 °F 87.5 °F 71.1 °F 67% 30.06 in 10.0 mi ENE 5.8 mph - N/A   Clear
7:53 PM 81.0 °F 85.2 °F 72.0 °F 74% 30.06 in 10.0 mi Calm Calm - N/A   Mostly Cloudy
8:53 PM 77.0 °F - 71.1 °F 82% 30.07 in 10.0 mi Calm Calm - N/A   Clear
9:53 PM 75.0 °F - 69.1 °F 82% 30.09 in 10.0 mi ESE 4.6 mph - N/A   Clear
10:53 PM 75.0 °F - 68.0 °F 79% 30.11 in 10.0 mi ENE 4.6 mph - N/A   Clear
11:53 PM 75.0 °F - 68.0 °F 79% 30.12 in 10.0 mi ENE 6.9 mph - N/A   Overcast